Find Starlink 32398

NORAD ID: 61624 Int'l Des: 2024-191 Owner: SPXS Country: US Constellation: starlink operational
LEOCIRCULAR

現在のビュー

3D地球を読み込み中...

About Starlink 32398

Starlink 32398 (NORAD 61624) is a starlink constellation satellite (v2 mini) launched Oct 23, 2024 by SPXS of US. It operates in LEO, CIRCULAR orbit with a mass of 730.00 kg.

次回通過

Passes for default location (London). Set your location on the main map for personalized predictions.

高度履歴

Loading altitude history...

軌道要素

1 61624U 24191D 26263.98301609 .00000343 00000-0 21994-4 0 9990
2 61624 43.0015 131.6175 0001277 265.5522 94.5184 15.27580732107405
Epoch: Sep 20, 2026 • Age: 18 hours

現在のステータス

高度 487.1 km
遠地点 / 近地点 N/A
速度 7.63 km/s
衛星直下点 43.15°N, 42.88°W
打ち上げ日 Oct 23, 2024
運用期間 1.9 years
タイプ internet

技術仕様

分類 Payload
質量 730.00 kg
乾燥質量 700.00 kg
長さ 0.30 m
スパン 29.00 m
形状 ? Box + pan
製造者 SPXS
バスタイプ Starlink V2M
フェーズステータス In Orbit
所有者/国 SPXS/US

Most Searched